Location: Black Swamp Observatory
(41.3920°N, 84.1250°W)
Time: 02:21:56
(UTC-05:00)

X-37B - Pass Details

Date: 05 December 2021
Orbit: 331 x 339 km, 45.0° (Epoch: 27 January)

Event Time Altitude Azimuth Distance (km) Brightness Sun altitude
Rises 19:11:33 0° 233° (SW) 2,088 5.3 -22.7°
Reaches altitude 10° 19:13:35 10° 226° (SW) 1,254 3.9 -23.1°
Enters shadow 19:14:36 19° 217° (SW) 865 2.8 -23.2°
